Regional Weather Roundup
Issued by NWS

Home | Current Version | Previous Version | Text Only | Print | Product List | Glossary Off
Versions: 1 2 3 4 5 6 7 8 9 10 11 12 13 14 15 16 17 18 19 20 21 22 23 24 25 26 27 28 29 30 31 32 33 34 35 36 37 38 39 40 41 42 43 44 45 46 47 48 49 50

000
ASUS45 KCYS 292010
RWRWY

WYOMING REGIONAL WEATHER ROUNDUP
NATIONAL WEATHER SERVICE CHEYENNE WY
200 PM MDT SAT AUG 29 2015

NOTE:  "FAIR" INDICATES FEW OR NO CLOUDS BELOW 12,000 FEET
WITH NO SIGNIFICANT WEATHER AND/OR OBSTRUCTIONS TO VISIBILITY.

WYZ001-292100-
YELLOWSTONE NATIONAL PARK

CITY           SKY/WX    TMP DP  RH WIND       PRES   REMARKS
LK YELLOWSTONE   N/A     66  37  34 VRB7G21   30.35R
W YELLOWSTONE  NOT AVBL

$$
WYZ002>013-054>058-071-098>099-292100-
NORTHERN WYOMING

CITY           SKY/WX    TMP DP  RH WIND       PRES   REMARKS
JACKSON        MOSUNNY   77  45  31 CALM      30.20F
CODY           FAIR      90  37  15 E16G23    30.02F
GREYBULL       FAIR      95  34  11 S13       29.95F HX  90
WORLAND        FAIR      93  34  12 VRB3      29.98F
SHERIDAN       FAIR      97  34  11 E9G17     29.95F HX  91
BUFFALO        FAIR      95  33  11 SE8G16    30.03F HX  90
GILLETTE       FAIR      94  35  12 SW13G20   30.01F
HULETT         FAIR      91  37  15 S15       30.04F
NEWCASTLE      FAIR      90  36  14 S12       30.07F

$$
WYZ014>020-022>026-101>103-292100-
CENTRAL WYOMING

CITY           SKY/WX    TMP DP  RH WIND       PRES   REMARKS
BIG PINEY      FAIR      83  34  17 S7        30.25F
PINEDALE       FAIR      81  30  16 SW10      30.27F
DUBOIS         FAIR      79  32  18 W14G21    30.24F
LANDER         FAIR      87  42  20 N6        30.10F
RIVERTON       FAIR      87  38  17 S7        30.12F
CASPER         FAIR      91  27  10 SW16G23   30.13F
DOUGLAS        FAIR      92  28  10 N5        30.12F

$$
WYZ021-027>030-104>119-292100-
SOUTHERN WYOMING

CITY           SKY/WX    TMP DP  RH WIND       PRES   REMARKS
EVANSTON       FAIR      85  36  17 SW20G28   30.26F
KEMMERER       MOCLDY    86  30  13 SW16G28   30.27F
FORT BRIDGER   MOCLDY    86  34  15 S5        30.28F
ROCK SPRINGS   FAIR      85  30  13 W10G21    30.24F
DIXON          FAIR      85  30  13 W8        30.29F
RAWLINS        FAIR      82  29  14 VRB5      30.28F
SARATOGA       FAIR      81  28  15 S7        30.32F
LARAMIE        FAIR      79  26  14 VRB6      30.32F
CHEYENNE       FAIR      83  39  21 S13G23    30.25F
TORRINGTON     FAIR      92  43  18 SE9       30.07F
PINE BLUFFS    FAIR      86  32  14 S12G20    30.19F

$$


USA.gov is the U.S. government's official web portal to all federal, state and local government web resources and services.